Showing default

COSMOS 1823, 17535

Orbit data source: Space-Track

COSMOS 1823, 17535 is a payload satellite owned by VTS SA (CIS) in LEO that was launched on Fri, 20 Feb 1987 UTC via a TSIKLON-3 launch vehicle from the Plesetsk Missile And Space Complex (PKMTR). Payload-class satellites include a variety of spacecraft equipped with specific instruments for various scientific and technological missions. These include communications satellites like Starlink; space stations such as the ISS; scientific satellites like the Hubble; Earth observation satellites from companies like Planet Labs, Umbra, and HawkEye 360; GPS; miniature CubeSats for education and research; and military/defense satellites.

Loading next visibility...
Identifier
17535, 1987-020A
Orbit
LEO
Country
Flag of CISCIS
Related business
Manufacturer
NPO PM
Mission
Defense Geodetic
Bus & Motor
KAUR-1 11F666, Unknown motor
Mass
1,545 kg wet, 1,545 kg dry
Launch date (UTC)
1987-02-20 (39 years ago)
Launch vehicle
TSIKLON-3
Launch site
Plesetsk Missile And Space Complex (PKMTR)
Object type
Payload
Rocket body
Debris
Shape & HBR
Cyl, 2.9 m
Radar Cross Section
13.195 m², Large (>1 m²)

Expand to show TLE details & history
Last TLE update: 2 days ago

TLE from 2 days ago
0 COSMOS 1823
1 17535U 87020A   26171.42830432 -.00000023  00000-0 -41155-4 0  9998
2 17535  73.6020  38.5723 0028622 242.2358 291.3735 12.41380511782266
Epoch: 2026-06-20T10:16Z
TLE epoch observation values (Epoch: 2026-06-20T10:16:45.493Z)
Latitude
6.3585°
Longitude
153.86966°
Altitude
1,494.342 km
Speed
7.121 km/s
True Right ascension
14h 26m 48s
True Declination
6° 19' 27"
Sunlit
Object was in daylight at epoch
Visualization orbit readout
Latitude
Unknown
Longitude
Unknown
Altitude
Unknown
Speed
Unknown
Apparent Right ascension
Unknown
Apparent Declination
Unknown
Sunlit
N/A
Visualization observer readout
Local Sidereal Time
06:30:47
Azimuth
Unknown
Elevation
Unknown
Doppler factor
Unknown
Orbital elements
Apogee altitude
1,521.18 km
Perigee altitude
1,476.09 km
Semi-major axis
7,876.772 km
Eccentricity
0.00286
Inclination
73.602°
RAAN
38.5723°
Arg. of periapsis
242.2358°
True anomaly
291.06768°
Mean anomaly
291.3735°
Eccentric anomaly
291.22063°
Mean motion
3.10471 °/min
Orbital period
115.95 mins
BSTAR
-0.000041155
Loading maneuver chart data...
Computing Atmospheric mass density...

Documentation

Showing up to 5 results
|